Retour au catalogue

NOAA 16 DEB

ActifPO
NORAD 42405·DEBRIS·🇺🇸 United States

Lancé Sep 21, 2000 depuis Vandenberg Space Force Base

Loading…

Prochains Passages (prochaines 24 heures)

TLE

FraisSource: Space-Track

Époque: Sep 13, 2026, 12:22 UTC

1 42405U 00055SZ  26256.51532250  .00004836  00000-0  11274-2 0  9997
2 42405  99.0154 154.6019 0020849 210.6007 149.3973 14.55171113546673

Suivez NOAA 16 DEB en temps réel avec AllMySat

Download on the App Store